Theta_e
308 312 320 325 325 328 329 329 326 327 326 325 326 327 326 326 332 334 334 335 333 330 338 337 338 340 339 338 336 332 328 330 331 330 332 331 327 318 314 313 312 310 309 311 312 314 315 316 317
306 310 322 326 327 326 326 325 328 327 325 324 325 328 331 332 334 334 335 333 333 330 337 337 338 339 339 338 335 331 326 329 331 331 331 330 327 317 316 312 311 309 311 313 314 316 317 317 319
305 319 325 322 323 324 321 324 326 326 327 327 326 328 330 333 334 332 333 333 333 331 335 336 337 337 338 337 335 330 324 327 329 330 331 330 323 319 318 311 310 310 314 314 315 316 317 318 320
309 319 323 326 324 322 320 322 323 324 325 325 325 327 333 334 334 332 332 331 331 330 333 335 336 336 336 335 335 327 323 324 329 329 329 330 324 328 321 311 309 313 316 317 316 317 317 319 322
310 317 320 322 319 321 322 321 322 321 322 323 324 323 329 333 334 333 332 330 329 330 334 335 335 335 333 333 330 324 326 325 323 328 329 329 328 322 318 313 310 313 318 316 317 319 320 322 322
311 316 319 317 313 317 318 321 322 322 322 321 321 321 329 334 334 333 333 333 333 330 332 335 334 333 331 328 325 323 321 323 327 326 328 327 328 327 319 314 311 313 316 317 320 322 322 322 322
306 311 313 312 314 315 318 320 320 321 318 319 320 320 324 329 334 334 334 334 335 333 333 335 334 332 329 323 321 317 316 323 326 328 328 328 328 327 323 312 312 314 315 318 323 323 322 320 322
306 305 308 310 312 312 313 314 316 316 313 315 318 326 327 331 333 334 334 336 336 334 333 335 334 331 327 320 315 315 324 325 328 326 327 328 327 328 321 311 312 314 318 323 324 324 322 319 321
304 303 303 304 306 307 307 305 306 307 309 308 312 320 318 331 333 337 335 337 337 336 334 336 335 330 325 318 315 319 324 324 327 326 326 327 328 329 315 313 313 316 322 325 326 323 322 321 322
302 301 302 303 303 303 304 304 305 305 305 306 308 316 312 322 333 337 336 336 337 336 335 336 335 331 322 317 320 324 325 327 327 325 326 326 322 328 313 311 315 322 324 326 326 320 318 321 321
303 302 302 303 304 304 303 304 305 303 305 309 306 306 307 309 323 331 335 334 337 336 336 336 335 332 322 317 321 325 319 329 327 326 325 328 327 325 313 312 315 322 325 325 324 320 318 318 320
302 302 302 303 303 302 302 303 303 304 304 305 305 306 306 307 309 321 329 335 334 336 336 336 335 332 322 318 317 322 320 317 327 327 326 324 325 320 313 312 315 318 322 323 324 321 318 319 320
301 301 301 301 302 301 301 301 302 303 304 305 305 306 306 306 306 308 319 327 335 336 336 335 334 333 323 319 317 318 319 317 323 318 326 317 319 316 313 313 315 319 322 323 322 321 318 319 321
302 302 302 302 301 301 301 301 301 302 303 304 305 305 306 306 304 305 313 314 332 336 336 336 334 334 329 322 318 316 318 316 314 315 313 312 311 315 313 313 316 320 322 323 323 322 321 319 321
302 302 301 301 300 300 300 301 301 303 303 302 302 303 303 303 303 303 306 311 323 333 335 335 335 333 332 326 322 318 316 315 315 313 312 313 311 314 313 314 316 320 323 324 324 323 323 321 320
302 301 302 300 300 300 300 300 299 301 301 302 303 303 304 304 304 304 305 309 322 331 332 334 334 333 331 330 329 324 319 317 315 314 313 312 312 315 314 314 316 319 324 324 325 323 324 325 322
302 302 301 301 301 301 300 300 300 302 302 301 302 303 303 304 304 305 306 309 315 330 327 333 332 333 330 329 330 330 326 324 318 313 312 313 312 316 316 315 317 321 324 326 325 323 323 324 322
301 302 301 302 301 301 301 301 301 302 301 300 301 301 302 302 303 305 307 310 316 324 331 331 332 333 330 328 327 330 330 329 326 316 311 310 312 315 319 319 319 322 323 321 324 323 323 321 322
303 304 304 302 302 303 302 302 301 301 300 299 300 300 301 302 303 303 305 308 316 322 328 331 332 333 331 329 328 329 331 331 330 327 318 312 310 317 321 320 320 323 323 323 324 323 322 321 320
302 302 302 301 301 302 301 301 301 301 301 300 300 300 300 301 302 303 307 309 313 317 327 330 331 332 332 330 328 328 329 329 330 330 329 328 324 316 317 317 322 324 323 323 323 323 322 321 321
301 301 301 301 302 301 301 302 301 301 301 301 301 301 301 301 301 302 302 307 310 314 320 330 331 331 331 330 330 330 329 328 329 329 329 328 328 323 318 320 321 325 324 323 321 322 321 321 322
300 300 301 301 302 302 301 301 299 300 300 300 301 301 301 301 301 302 302 304 308 309 314 321 328 328 328 331 329 330 329 328 328 327 327 328 327 327 323 319 319 320 325 325 323 321 321 320 321
300 300 301 301 302 303 303 303 300 300 300 300 300 301 301 301 301 301 302 303 307 309 316 321 323 329 327 331 330 330 329 329 329 329 329 326 327 327 327 323 319 319 326 324 325 322 322 322 322
300 300 301 302 303 302 302 302 300 299 301 300 299 300 301 301 301 301 301 302 304 312 319 320 321 324 327 330 328 329 329 329 329 329 327 327 327 326 326 323 322 321 324 324 323 321 321 321 321
301 299 295 296 297 299 301 303 303 302 302 302 302 302 301 300 301 301 301 302 304 312 315 321 323 321 322 327 328 328 328 329 329 328 328 328 328 326 326 326 324 324 324 324 323 322 322 322 322
301 302 301 303 299 301 303 305 306 299 296 297 297 301 302 300 301 301 302 303 304 310 321 323 323 322 322 328 328 328 328 328 328 328 328 329 328 327 327 327 326 324 325 324 324 323 323 322 320
298 301 298 299 300 303 306 305 305 295 293 294 298 302 300 300 300 301 301 302 305 309 320 323 323 319 321 324 327 327 328 329 329 328 328 328 327 327 327 324 325 324 324 324 323 323 318 320 317
298 297 295 299 298 300 304 304 296 292 291 291 306 302 299 300 301 301 302 303 305 312 321 324 324 322 322 324 327 327 327 327 327 327 327 324 323 324 322 321 320 319 317 318 319 317 319 317 310
295 293 294 295 297 302 304 301 293 290 289 298 306 304 299 300 301 301 307 309 313 318 320 323 323 324 326 326 326 326 326 326 325 325 325 323 321 320 318 318 317 317 315 311 312 311 307 308 302
294 292 293 294 299 297 301 300 291 288 288 301 305 305 304 304 305 307 309 314 317 319 322 323 322 324 324 324 324 325 323 321 321 317 316 314 316 313 312 311 311 309 308 309 302 303 299 300 300
Wind_Speed
12 10 8 4 1 3 9 6 3 4 3 10 10 4 6 14 6 5 5 22 23 30 37 38 37 34 30 28 26 24 24 23 22 23 24 23 21 21 20 19 18 17 18 18 19 18 18 16 15
9 6 6 4 4 8 10 10 10 15 12 12 14 6 3 6 8 4 16 24 23 32 38 40 38 35 31 29 26 25 26 25 24 23 22 24 21 20 20 19 18 18 18 18 19 18 17 16 15
7 4 5 4 5 20 10 6 17 20 20 17 8 8 8 4 10 5 10 25 27 33 38 41 39 36 33 30 28 26 27 27 26 25 24 21 22 21 20 20 19 19 19 19 18 17 16 16 14
2 4 4 7 22 10 13 2 6 7 14 13 12 8 6 9 5 11 17 23 29 34 38 41 39 37 35 31 29 27 27 28 27 25 25 23 22 22 21 20 20 19 18 17 18 17 16 15 14
5 2 4 9 26 7 3 12 19 9 7 7 14 7 8 16 16 13 19 25 30 36 39 42 40 38 34 33 30 29 29 27 26 24 26 25 24 22 21 20 21 20 19 17 18 17 16 15 14
3 1 6 13 22 4 7 23 12 5 16 19 11 14 8 11 14 15 20 27 31 37 41 42 39 36 34 31 31 30 30 28 26 25 26 26 25 23 22 22 20 20 19 16 18 16 16 15 14
3 1 6 7 6 4 4 13 7 17 7 8 9 4 7 9 16 14 20 27 32 34 41 41 39 35 32 29 30 31 30 28 28 27 26 27 26 24 22 22 21 20 18 17 16 15 15 15 15
2 2 4 4 4 7 11 16 11 6 5 13 6 1 5 6 16 21 22 28 33 33 41 42 40 36 32 30 30 30 29 29 29 27 28 26 26 24 23 22 22 20 18 16 15 15 15 15 16
4 1 3 4 3 5 14 9 9 15 13 12 10 10 14 17 17 25 25 30 33 33 41 41 40 38 35 33 31 30 31 27 29 28 29 27 26 23 23 22 21 20 18 15 14 14 15 15 17
3 2 5 4 4 7 13 12 20 9 16 13 21 11 17 10 14 23 29 34 37 38 43 43 42 39 37 35 34 31 32 31 30 30 30 29 26 24 23 22 21 20 19 17 15 14 14 17 18
3 6 4 8 17 13 7 14 14 8 8 3 16 26 24 18 9 16 20 34 41 40 43 44 44 41 39 39 37 34 33 35 32 31 30 29 27 26 23 23 23 22 20 18 15 15 16 17 19
4 8 11 12 17 8 7 12 12 19 19 17 19 20 24 21 18 15 19 23 34 41 41 44 43 41 41 40 39 37 34 34 35 33 32 31 29 28 26 24 23 22 20 17 15 15 16 18 19
9 11 15 14 22 20 22 16 15 25 32 27 17 15 23 25 23 22 16 23 29 43 42 40 38 42 41 40 39 38 36 33 35 33 33 33 31 29 27 25 23 22 21 18 16 16 16 18 19
6 11 18 18 26 18 16 21 12 20 30 32 29 27 29 31 26 22 21 25 28 34 42 45 44 40 40 40 40 38 36 33 31 30 31 30 28 29 27 25 24 23 21 18 15 16 17 18 19
13 13 15 18 18 9 14 10 13 21 27 35 30 25 29 32 29 27 19 22 23 32 41 48 45 41 40 40 39 37 36 33 31 29 27 29 28 28 27 26 25 24 22 19 18 17 17 18 20
9 7 8 3 3 5 7 13 9 16 19 27 31 28 26 26 26 26 21 17 18 27 40 42 44 44 34 37 39 37 35 33 31 29 27 29 28 28 27 25 25 24 23 21 21 17 19 18 19
7 11 13 14 6 6 9 6 6 16 24 22 26 24 25 24 21 20 20 21 17 21 28 44 41 41 29 29 40 38 35 33 31 29 28 29 29 29 27 26 24 25 24 22 21 21 20 19 20
12 12 12 14 4 7 16 17 16 21 23 22 28 25 17 17 17 16 19 22 13 16 34 34 40 44 35 32 37 40 37 33 31 30 29 29 30 30 29 27 27 27 25 23 27 24 23 20 20
18 18 20 19 17 18 18 21 19 17 15 18 28 21 19 23 22 15 16 20 15 17 20 34 48 46 40 41 37 41 41 37 34 31 27 26 29 31 30 28 28 29 28 28 28 27 26 24 23
15 21 23 20 16 12 15 21 16 13 12 18 24 27 21 22 27 18 9 13 22 18 21 33 38 44 43 39 40 42 37 36 34 32 31 30 29 31 29 28 30 31 30 31 31 31 30 29 27
16 16 19 20 18 16 15 21 17 16 21 28 31 34 24 22 26 22 15 18 24 20 14 26 33 47 46 42 41 38 35 35 36 36 32 32 29 29 30 31 32 33 34 35 32 33 32 33 31
13 5 6 12 9 6 4 9 8 5 12 12 24 29 26 25 24 24 21 16 20 21 20 21 26 46 37 42 41 40 39 40 38 35 34 34 33 30 29 33 34 36 37 37 34 34 33 34 35
9 9 11 15 14 9 13 6 5 8 13 17 16 26 25 26 26 25 22 14 17 18 23 21 19 19 38 41 42 40 37 36 35 35 33 33 34 33 33 33 35 36 38 37 36 36 38 38 37
17 17 16 12 6 5 10 9 4 2 3 5 6 18 25 24 25 26 20 17 13 20 22 24 17 20 22 34 42 35 35 35 35 34 35 33 35 38 36 35 37 37 41 39 41 37 39 41 41
7 5 4 4 1 5 3 8 10 13 14 12 15 20 24 22 22 22 22 20 17 19 20 25 25 18 20 27 29 31 32 38 37 34 34 36 35 34 38 37 37 41 41 41 43 40 37 41 42
11 3 3 7 2 3 5 4 1 19 26 35 34 26 21 20 22 22 21 19 17 15 18 24 25 20 12 23 27 27 29 31 34 33 36 34 33 33 37 41 42 42 43 46 42 39 39 38 40
10 9 13 7 15 5 3 2 4 29 28 22 20 17 15 19 19 21 20 18 14 14 18 19 19 5 16 23 29 27 26 28 31 29 30 33 33 35 40 42 45 44 44 44 42 37 33 32 35
11 12 6 3 5 5 2 6 10 30 32 34 5 6 14 18 14 12 12 13 14 12 16 15 20 14 9 21 23 26 22 23 26 27 27 27 28 32 34 34 37 33 32 35 31 28 27 28 27
9 10 5 4 3 3 6 5 15 25 27 24 13 12 7 12 7 6 12 16 16 13 13 11 14 14 18 23 18 14 15 18 19 22 25 23 21 24 23 23 24 27 24 19 22 21 17 19 14
9 14 5 1 4 4 3 4 23 26 25 19 15 23 28 32 31 28 24 26 25 24 20 19 19 14 12 8 8 6 6 7 10 6 4 5 11 12 12 12 11 11 12 13 11 9 10 12 15
Wind_Direction
270 256 250 223 64 245 232 245 285 249 221 219 217 225 223 212 176 214 184 177 177 180 174 175 180 184 182 181 181 178 169 171 170 166 165 170 171 171 158 155 155 152 147 143 140 139 142 143 143
293 245 222 180 198 240 239 214 236 238 247 278 299 272 261 251 214 214 162 174 180 180 176 177 180 183 184 184 180 181 176 176 174 169 170 173 173 167 161 157 155 153 150 147 145 146 148 150 150
291 229 184 176 215 233 245 198 231 254 266 273 299 272 253 243 226 223 187 175 175 181 179 179 182 185 185 186 183 184 182 179 178 170 166 170 175 166 164 161 159 158 155 152 150 152 155 156 156
282 217 239 241 237 248 226 199 225 257 260 261 266 282 262 236 225 220 182 179 175 181 182 180 182 185 188 188 188 186 184 183 180 178 168 166 174 163 166 163 163 158 155 155 152 157 161 162 164
231 234 242 239 249 258 252 251 264 272 297 285 319 284 284 275 244 214 196 187 179 180 184 182 185 187 188 191 191 187 184 186 184 178 170 170 169 167 170 165 165 161 158 158 156 161 164 168 170
214 157 243 242 251 308 250 268 275 258 277 285 278 269 260 259 223 225 205 192 185 183 182 185 187 191 192 192 189 189 188 185 179 183 172 173 171 170 169 170 168 167 164 161 158 164 169 175 176
142 152 248 286 301 313 281 246 247 277 275 276 284 250 269 267 229 226 204 195 191 190 184 185 188 190 193 191 189 190 189 185 175 175 176 177 171 172 170 171 169 171 169 164 163 169 177 180 182
264 134 282 265 286 293 260 289 310 326 298 314 337 300 330 326 214 212 206 199 194 194 191 188 188 190 190 190 189 188 186 183 176 177 177 177 173 173 177 174 173 171 168 167 169 174 187 184 186
205 265 267 274 270 286 330 342 305 315 287 327 311 326 350 320 213 205 193 196 196 197 195 193 190 189 189 189 186 189 186 180 178 181 179 178 177 177 178 178 174 170 170 175 180 186 194 190 186
155 193 246 213 315 306 305 299 304 303 299 297 295 248 324 347 192 204 204 198 202 199 197 199 194 191 189 189 186 187 184 181 180 184 182 183 181 182 180 176 176 174 176 180 189 196 196 197 193
200 211 211 275 291 297 298 306 314 287 288 290 309 312 314 323 285 237 218 215 206 205 198 202 199 194 190 189 188 189 190 181 185 186 185 188 183 186 182 181 182 179 185 187 193 199 202 201 201
288 255 262 277 281 298 291 290 281 276 270 286 296 298 301 301 302 284 255 231 221 206 202 202 201 197 193 192 191 191 193 192 185 189 189 194 189 189 186 187 187 188 190 194 200 204 206 203 202
255 273 276 267 287 288 285 262 257 268 275 289 278 274 287 292 293 286 275 256 222 210 204 204 204 203 197 194 193 194 196 196 192 194 192 199 193 190 189 190 192 193 196 201 200 203 209 209 207
267 286 287 293 288 284 270 268 262 269 273 276 278 278 282 285 286 284 282 276 239 199 212 206 203 202 202 199 197 197 199 199 200 200 202 198 195 192 193 194 195 196 199 204 203 212 216 218 221
279 290 292 281 279 254 259 264 239 258 271 275 274 271 277 279 278 273 264 285 265 231 217 208 205 200 210 204 203 201 202 204 202 205 208 202 198 197 198 197 200 201 203 205 205 205 216 225 230
284 271 281 58 330 256 177 265 278 269 261 274 282 281 274 274 279 274 262 273 274 241 217 207 205 204 195 209 209 206 205 206 206 207 205 203 201 201 201 203 206 205 206 210 213 218 230 242 238
198 267 263 289 232 240 195 255 248 281 288 280 283 283 279 280 282 268 258 263 283 235 230 208 216 213 196 211 212 211 211 211 211 210 207 208 206 205 206 209 210 205 211 216 222 225 233 249 244
277 262 262 264 252 274 287 273 271 272 271 272 279 280 277 275 287 268 255 252 273 249 223 220 215 211 203 198 213 212 211 215 216 215 215 213 212 209 211 213 212 207 213 222 224 228 239 245 252
280 276 268 270 279 277 270 269 271 269 254 262 269 264 259 271 277 294 247 245 266 263 240 216 208 207 207 200 199 218 211 211 214 217 218 216 218 214 215 219 215 217 217 221 228 234 239 241 245
272 275 271 277 268 258 260 261 264 256 246 242 259 269 256 261 273 280 276 241 240 263 240 216 215 214 210 206 200 212 216 215 218 216 220 224 225 220 222 227 223 224 216 227 234 236 241 244 244
275 267 277 276 294 272 273 274 263 249 246 246 249 253 253 254 264 268 267 229 230 247 258 223 204 213 213 206 209 210 213 220 220 219 220 224 230 230 228 228 227 230 227 230 238 240 245 251 250
287 255 285 293 289 279 152 288 244 241 233 228 238 242 238 238 251 255 256 233 230 236 242 253 230 219 220 208 215 212 214 215 220 220 222 225 234 235 235 234 233 234 235 237 239 247 248 252 251
264 301 283 277 276 283 235 264 265 228 245 241 226 233 234 227 236 244 248 243 228 238 230 238 240 223 225 215 217 215 218 226 228 225 226 235 234 236 238 238 237 238 237 239 241 248 250 253 251
278 292 279 260 246 246 240 191 306 198 283 308 247 240 235 227 231 238 237 239 233 220 217 228 243 241 243 218 225 222 224 229 228 228 235 237 235 237 237 239 239 241 240 239 241 251 252 252 260
325 293 319 337 349 229 352 182 260 330 356 334 320 295 254 235 230 225 226 225 227 205 217 227 226 232 236 244 236 230 236 236 240 240 240 249 236 243 244 245 245 245 243 243 245 249 255 252 254
306 340 350 298 268 273 105 244 235 9 342 326 312 287 270 222 218 213 212 215 219 218 206 221 220 230 271 262 243 233 237 243 248 243 238 244 254 258 255 253 247 248 244 245 245 252 257 253 253
332 324 295 245 256 249 210 349 187 346 328 322 280 250 219 204 215 218 223 221 211 213 208 216 213 260 237 274 242 245 247 248 243 244 249 254 258 260 262 258 247 242 241 247 246 248 250 253 258
341 345 329 337 337 318 327 70 354 344 330 327 35 160 180 175 188 191 205 208 199 188 187 202 215 253 241 256 242 231 236 236 242 250 256 261 259 257 258 256 252 248 253 251 242 247 251 257 260
2 355 314 291 255 296 339 94 7 340 330 325 31 50 142 142 132 129 132 162 173 151 136 169 197 201 214 227 237 210 228 236 243 243 256 259 266 275 283 284 278 272 269 272 258 255 249 246 260
37 358 319 268 340 322 274 73 5 345 338 360 49 74 74 75 78 96 107 110 109 106 118 125 125 156 139 149 197 221 225 204 230 234 260 326 307 339 340 327 311 299 283 260 293 291 307 312 305